User: anonymous   Login
Location: ActonStarParty
(42.4766°N, 71.4538°W)
Time: 19:16:54
(UTC-05:00)
Language:

Cosmos 1300 - Orbit

View from above orbital plane
View from above orbital plane
View from above satellite
View from above satellite

Ground track
Ground track

The orbit data is extracted from the following two-line orbital elements,

1 12785U 81082A   17052.89164226  .00000704  00000-0  34517-4 0  9990
2 12785  82.5055 187.2388 0000428  68.2029  40.7856 15.16556089934370
Epoch (UTC): 21 February 2017 21:23:57
Eccentricity: 0.0000428
inclination: 82.5055°
perigee height: 516 km
apogee height: 516 km
right ascension of ascending node: 187.2388°
argument of perigee: 68.2029°
revolutions per day: 15.16556089
mean anomaly at epoch: 40.7856°
orbit number at epoch: 93437

The dashed part of the orbit path shows where the satellite is in the earth's shadow,  

DLR